Location: Bonac
(42.8765°N, 0.9753°E)
Time: 10:50:23
(UTC+00:00)

CZ-2D R/B - Pass Details

Date: 12 January 2026
Orbit: 525 x 595 km, 98.0° (Epoch: 11 February)

Event Time Altitude Azimuth Distance (km) Brightness Sun altitude
Rises 18:35:59 0° 175° (S) 2,692 6.9 -20.1°
Reaches altitude 10° 18:38:08 10° 179° (S) 1,795 6.0 -20.5°
Maximum altitude 18:41:56 58° 259° (W) 629 3.8 -21.1°
Drops below altitude 10° 18:45:44 10° 339° (NNW) 1,783 6.0 -21.8°
Sets 18:47:52 0° 343° (NNW) 2,674 6.9 -22.2°
